Starlink 5163

operational
NORAD ID: 54054 Int'l Des: 2022-136 Owner: SPXS Country: US Constellation: starlink
LEOCIRCULAR

关于 Starlink 5163

正在加载描述...

实时位置

正在加载3D地球...

即将过境

高度历史

Altitude vs Time

uPlot chart will show altitude changes over time

两行轨道根数

1 54054U 22136D 25303.93524779 -.00001820 00000-0 -96379-4 0 9992
2 54054 53.2180 206.7378 0001055 90.1743 269.9370 15.08816113167258
Epoch: Oct 30, 2025 • Age: 13 hours

当前状态

高度 545.8 km
速度 7.59 km/s
星下点 -20.40°S, 17.44°W
发射日期 Oct 20, 2022
运行时间 3 years
类型 internet

技术详情

分类 Payload
质量 305.00 kg
干质量 290.00 kg
总质量 305.00 kg
长度 0.20 m
直径 2.80 m
跨度 9.00 m
形状 Box + pan
制造商 SPXS
平台类型 Starlink
阶段状态 In Orbit
所有者/国家 SPXS/US

大型星座

Loading constellations...